Location: Hastringsfeld
(50.9620°N, 10.4787°E)
Time: 16:06:35
(UTC+00:00)

COSMOS 2428 - Pass Details

Date: 26 September 2023
Orbit: 842 x 858 km, 70.9° (Epoch: 08 December)

Event Time Altitude Azimuth Distance (km) Brightness Sun altitude
Rises 04:19:28 0° 328° (NNW) 3,415 5.6 -8.7°
Reaches altitude 10° 04:21:56 10° 327° (NNW) 2,478 4.9 -8.4°
Maximum altitude 04:27:35 70° 245° (WSW) 904 2.7 -7.5°
Drops below altitude 10° 04:33:13 10° 163° (SSE) 2,472 5.3 -6.6°
Sets 04:35:40 0° 161° (SSE) 3,406 6.0 -6.2°
